RH
55 61 66 70 75 81 87 98 100 99 96 83 39 37 22 8 5 6 6 11 14 21 31 31 55 69 71 86 93 74 94 93 28 16 16 15 18 21 21 20 22 32 49
61 63 70 82 88 95 96 98 100 99 88 54 64 53 9 6 6 6 8 21 22 37 44 53 81 85 98 94 70 65 21 20 21 20 15 20 21 21 22 28 50 56 47
80 74 77 92 97 96 97 100 98 96 89 77 94 26 7 7 8 8 15 29 34 57 70 67 51 42 38 29 21 15 15 20 23 26 23 22 23 33 47 59 51 32 21
82 89 89 100 98 99 98 98 98 95 92 76 18 19 26 16 12 12 31 60 61 72 93 70 52 52 40 19 15 18 22 26 25 24 23 26 40 62 67 57 42 31 43
80 88 99 99 99 99 97 96 94 95 86 85 69 62 32 36 16 20 26 40 44 81 72 66 65 53 21 19 19 25 22 23 25 26 27 41 65 72 66 49 31 38 61
81 88 100 100 100 96 96 94 100 95 84 85 86 80 42 20 22 34 41 64 60 62 62 62 58 28 19 22 27 22 23 27 30 35 40 56 64 72 60 41 59 69 59
92 100 99 97 93 91 98 98 96 94 92 91 71 40 21 29 22 36 69 78 74 68 73 55 32 23 23 30 28 28 34 42 47 50 48 68 72 75 52 67 77 77 73
99 100 100 100 100 100 99 96 94 94 88 65 57 27 26 23 28 57 100 100 76 78 64 36 27 21 28 30 24 29 35 43 47 50 58 73 79 59 74 76 78 71 75
94 100 99 98 97 97 97 96 95 88 76 58 46 26 16 24 48 94 100 87 80 65 46 35 26 23 29 23 27 30 34 37 42 48 61 82 68 69 82 78 77 75 71
100 100 100 96 98 96 94 95 93 70 58 54 21 16 17 31 55 84 72 73 70 53 42 24 20 29 24 23 28 31 29 31 32 40 51 82 60 80 82 81 78 78 92
98 96 97 98 97 94 95 86 79 68 50 23 16 17 20 28 43 57 64 64 55 46 24 19 25 27 21 25 28 30 30 28 28 29 41 73 60 82 82 82 78 73 77
97 99 99 96 95 96 91 82 70 33 24 20 18 20 23 26 33 48 60 58 52 33 19 20 29 23 20 25 26 27 30 30 27 24 28 51 72 68 88 86 86 84 100
98 97 96 96 96 90 68 55 27 28 24 23 23 24 29 32 31 34 57 65 56 34 21 22 29 24 20 23 24 25 25 26 20 16 19 35 71 63 78 86 88 79 75
97 94 96 87 48 60 42 25 28 32 30 30 30 30 33 37 41 43 64 78 64 51 24 23 28 27 19 19 21 22 23 23 16 10 10 17 38 83 60 80 78 77 73
94 86 56 52 46 25 23 26 28 32 40 41 40 38 39 45 49 50 59 81 72 61 32 23 25 27 18 17 20 19 20 23 18 15 10 10 26 53 84 55 82 76 72
56 51 40 25 23 24 24 28 39 37 33 40 50 48 49 54 61 63 65 91 93 68 45 24 22 24 25 18 19 19 20 22 21 18 15 11 16 36 62 86 49 82 78
38 33 27 21 20 24 29 36 34 37 43 38 50 59 56 52 58 72 74 83 99 82 57 32 23 23 25 26 20 18 18 21 23 23 18 16 15 24 46 68 87 42 86
20 20 21 25 29 33 38 39 36 40 54 47 46 58 68 77 68 68 86 100 90 92 73 53 36 27 25 25 28 27 23 23 24 27 26 18 16 17 30 51 71 91 37
26 29 31 33 35 38 40 40 45 52 62 50 35 36 53 66 82 84 91 96 94 97 85 80 76 58 40 32 29 28 32 36 37 37 33 25 18 16 18 35 54 70 92
31 32 33 32 33 35 38 46 80 88 90 74 57 70 74 72 61 75 100 100 100 99 99 96 96 99 94 85 79 64 40 38 42 42 44 38 24 18 17 22 38 56 74
34 34 35 36 37 38 40 42 57 68 55 50 100 84 72 93 82 76 96 100 100 100 100 99 98 97 98 95 92 87 86 95 96 53 45 45 39 24 17 17 25 44 60
26 21 16 13 11 10 12 17 83 52 62 81 74 81 87 92 90 75 96 97 96 99 100 99 100 99 100 100 100 96 95 95 98 100 82 52 48 43 24 17 16 29 46
10 8 7 8 8 9 10 10 11 13 67 99 68 85 98 87 97 79 96 97 100 98 99 96 100 99 98 99 100 98 98 100 100 98 98 98 56 52 44 24 17 15 27
8 9 9 10 10 11 12 12 14 18 21 37 53 97 99 91 88 92 98 98 100 99 99 95 100 99 98 99 100 97 79 82 97 100 94 97 96 60 58 43 25 19 15
10 10 10 10 11 13 17 30 100 97 76 73 67 74 100 100 99 98 99 98 98 98 100 100 99 98 98 97 71 37 28 26 34 63 94 95 99 94 67 64 43 27 23
10 10 12 14 18 27 58 64 83 100 97 95 100 99 99 100 97 100 100 100 100 100 97 93 96 100 100 74 31 29 27 24 24 28 46 94 100 100 96 84 70 43 32
Wind_Speed
31 32 35 38 39 42 45 46 47 46 42 35 34 33 34 34 35 33 32 31 31 31 29 28 25 31 34 35 39 44 42 45 46 43 39 38 39 40 39 38 38 37 35
37 38 40 41 41 44 48 49 49 42 37 35 33 33 34 35 35 34 31 28 29 26 26 26 28 32 33 38 43 42 41 40 42 42 37 38 38 38 38 36 33 31 31
42 43 44 43 43 46 47 50 47 39 38 36 33 31 33 34 31 33 30 29 28 26 27 28 30 33 35 36 37 37 36 33 34 38 38 36 36 36 33 31 30 30 29
45 44 44 42 44 47 49 45 42 36 38 27 27 30 33 37 35 31 28 28 29 28 31 32 32 34 35 37 36 33 31 32 33 34 35 34 33 30 29 31 30 28 28
45 42 41 42 45 47 42 42 40 38 26 25 27 29 33 37 37 28 26 28 28 27 31 31 33 34 36 35 31 29 31 31 32 32 31 31 28 28 28 28 31 32 26
41 39 39 43 46 47 47 47 41 37 21 24 25 29 34 37 36 31 28 29 28 29 30 32 32 33 34 30 28 29 31 33 32 33 32 30 27 27 28 30 32 28 22
40 40 42 44 47 53 54 45 34 33 24 23 28 33 35 38 36 32 30 32 31 31 32 33 33 33 30 27 28 29 27 27 29 30 30 29 28 28 31 29 23 22 21
42 44 47 49 51 54 53 35 34 21 22 26 31 33 37 38 35 33 34 36 34 32 32 33 33 31 25 26 27 26 24 25 26 28 30 28 28 28 27 23 21 19 18
44 47 51 51 55 55 41 34 26 21 23 28 34 36 35 34 33 32 34 36 33 32 32 32 31 26 24 27 24 23 22 23 24 25 27 25 25 25 21 19 18 17 15
45 49 53 55 57 41 26 25 19 22 26 32 34 32 30 27 28 30 32 31 30 30 31 30 25 23 25 25 23 22 21 22 23 23 23 23 22 19 16 16 13 10 14
52 54 57 56 41 31 23 15 17 23 32 32 30 27 25 25 27 30 29 27 27 29 28 24 22 22 23 22 21 22 22 23 23 23 23 21 19 16 14 13 9 11 13
51 55 51 37 36 23 17 15 25 31 31 28 28 26 25 25 27 28 27 23 25 25 24 21 20 23 22 21 21 21 21 21 21 21 21 21 18 16 13 12 11 12 11
49 40 36 32 21 19 18 25 28 29 30 28 28 27 26 27 29 27 23 23 24 23 23 20 19 21 20 19 19 19 18 19 20 20 20 19 19 16 14 12 11 11 9
37 32 25 22 14 20 26 28 29 26 28 29 29 29 29 29 29 28 26 27 25 25 23 20 18 19 18 17 17 17 17 19 21 21 20 18 18 17 16 13 10 9 7
21 22 18 19 24 26 27 29 30 29 27 28 30 31 31 31 30 29 27 27 27 26 24 20 18 18 17 15 16 16 16 18 20 22 22 19 17 17 16 14 11 9 8
20 20 24 26 27 28 30 30 30 32 32 30 29 30 30 31 31 30 28 26 29 26 24 20 18 18 17 15 15 15 15 17 19 22 23 21 17 16 15 14 12 10 11
25 26 28 29 30 32 32 33 34 34 33 32 32 33 32 31 31 30 28 25 28 28 23 21 20 18 18 17 16 16 15 16 17 19 21 21 19 17 15 15 12 11 11
27 27 29 30 33 35 36 36 37 38 36 37 35 34 33 32 31 28 27 28 29 27 23 21 20 19 19 18 17 17 17 16 16 17 19 20 20 18 15 15 14 11 10
31 32 34 35 37 38 40 41 41 40 39 41 40 38 33 33 33 30 27 27 26 25 24 22 20 20 20 19 19 18 17 16 16 17 17 17 18 18 16 14 14 13 11
35 37 39 41 43 44 44 45 43 45 45 45 43 39 36 35 30 29 29 30 28 25 25 25 23 21 20 19 20 21 18 17 17 16 17 17 17 17 17 15 13 13 12
40 43 45 46 48 49 50 50 48 48 48 45 39 36 31 29 30 28 28 30 31 32 28 27 27 24 21 20 20 17 14 15 17 18 17 18 16 16 15 16 13 12 11
48 50 52 52 52 52 52 51 46 49 43 39 37 35 30 28 31 31 27 27 27 29 29 24 26 25 23 22 21 21 20 18 17 17 17 17 17 15 14 13 13 11 10
51 51 50 49 47 46 46 44 43 40 35 35 39 36 27 27 28 28 26 25 25 25 24 19 23 26 26 25 24 23 24 21 19 19 18 17 17 15 14 13 12 11 10
48 48 45 44 43 41 39 38 35 32 33 36 36 34 25 26 23 24 20 19 19 19 21 16 21 25 26 26 26 27 26 24 22 21 19 17 17 16 15 13 12 10 9
46 45 44 42 40 38 34 29 25 28 27 25 30 26 26 21 21 22 21 21 17 19 19 21 26 29 28 27 27 26 24 22 22 21 20 20 19 18 16 14 13 11 10
43 42 40 38 36 33 29 27 27 28 27 31 30 27 21 24 25 26 27 29 29 27 27 27 29 32 32 25 24 23 23 22 21 21 21 21 20 19 19 16 14 13 11
Wind_Direction
276 277 276 275 277 278 282 286 292 294 300 301 298 308 309 311 314 315 314 314 312 313 309 307 300 291 292 288 287 303 299 299 299 302 302 299 297 297 297 297 294 292 290
280 278 275 275 277 280 285 291 287 294 297 293 302 310 315 317 317 318 318 312 317 311 307 306 300 297 289 290 296 295 298 298 300 299 302 301 300 300 299 297 296 293 291
295 287 282 282 281 282 285 285 291 292 295 298 310 314 314 314 323 327 324 317 315 312 306 306 304 301 300 300 296 300 300 302 299 300 303 303 303 303 301 299 298 296 294
297 296 290 286 285 281 279 287 288 291 297 312 316 319 324 328 327 329 318 310 310 305 305 304 306 303 301 301 305 307 305 303 303 303 305 306 307 305 305 304 302 301 300
297 297 294 288 286 280 280 279 288 288 300 306 315 321 324 321 321 328 313 306 303 297 298 304 304 302 302 305 308 305 307 308 308 309 311 314 312 308 307 306 303 302 300
294 295 290 284 281 277 274 275 276 295 313 311 319 324 318 316 320 324 316 314 306 303 305 307 305 303 306 309 308 310 313 314 316 318 319 319 314 313 312 311 310 309 308
292 285 283 286 282 279 279 272 278 298 314 322 325 318 315 313 316 318 316 312 305 306 307 308 306 308 310 310 310 313 313 310 313 316 320 320 318 315 313 313 315 313 312
284 282 280 280 276 277 275 275 297 304 323 323 317 313 307 307 309 312 311 309 308 303 308 307 307 307 311 310 313 314 311 312 316 319 322 320 317 316 315 317 315 315 320
280 277 275 269 272 275 275 292 303 323 319 315 312 305 305 305 306 303 299 302 303 304 304 305 303 307 312 314 316 315 315 315 318 321 322 319 317 317 314 315 313 321 338
265 265 267 274 272 274 296 303 324 321 313 304 301 303 308 307 304 306 302 301 303 303 304 303 304 312 315 318 320 320 321 319 320 320 325 323 318 315 312 313 316 336 341
271 273 276 276 272 293 297 327 312 299 301 305 303 309 311 308 306 304 301 300 300 301 303 302 307 315 319 320 323 325 325 323 324 325 327 325 326 318 309 308 302 327 341
284 280 273 282 293 285 319 317 297 301 302 302 307 309 311 310 307 303 303 299 299 304 306 305 309 318 322 324 326 328 330 324 326 325 323 334 329 322 309 303 294 296 314
287 274 291 293 286 317 309 297 303 303 303 304 306 309 310 308 306 308 303 297 303 313 309 304 307 315 317 320 323 328 329 332 333 330 329 329 331 331 319 302 297 284 279
283 288 285 299 307 295 296 300 302 303 302 303 305 306 304 301 302 304 299 298 304 312 310 302 301 308 309 318 324 326 332 337 340 343 337 330 333 335 327 312 298 286 269
284 285 290 287 290 295 298 299 301 306 305 304 304 302 301 300 299 297 297 297 299 304 306 302 293 300 308 315 318 323 330 337 344 350 348 338 333 333 329 327 306 282 253
286 290 294 295 295 296 297 299 304 305 304 306 303 299 298 298 294 292 291 288 290 294 301 301 291 294 303 303 307 313 323 332 343 352 354 348 336 332 338 331 324 291 264
301 298 296 297 296 296 299 301 301 299 300 302 302 300 298 295 292 289 287 286 286 288 296 295 293 290 293 297 297 301 310 321 334 345 352 351 348 339 337 339 332 321 285
296 295 295 294 295 297 297 296 297 299 297 300 300 298 296 294 290 285 280 275 275 281 282 287 287 286 287 290 292 296 302 308 321 331 343 345 348 346 337 338 340 331 321
302 300 298 297 296 296 295 296 296 291 288 294 297 295 295 293 287 281 280 281 280 272 272 276 280 282 283 285 287 289 295 303 311 318 326 336 341 345 343 338 339 341 336
301 301 300 299 298 296 295 295 293 293 292 295 296 297 296 295 287 276 270 273 276 271 273 275 271 275 278 283 288 287 290 295 301 309 316 321 332 339 345 341 338 341 344
303 303 300 298 295 294 292 292 289 286 288 290 289 293 291 286 295 288 276 267 265 271 267 280 282 275 274 279 282 290 297 308 294 295 303 311 319 329 336 343 339 337 342
305 303 301 299 297 296 293 289 282 287 290 286 287 286 288 284 291 293 285 280 271 268 264 268 278 275 273 276 278 281 282 285 292 294 288 295 303 314 324 331 337 330 335
305 304 303 303 301 300 298 294 291 288 283 279 286 278 283 287 281 283 286 283 274 270 266 257 271 268 272 272 275 277 278 282 285 285 288 281 288 298 310 315 323 326 323
309 309 310 307 305 304 302 299 297 292 284 280 283 285 276 281 279 283 285 287 286 277 268 265 263 269 271 271 275 276 277 277 275 277 281 278 274 282 292 300 305 311 313
313 312 311 310 309 308 305 298 294 294 289 281 282 282 285 268 267 270 272 277 280 265 259 255 262 270 274 275 272 270 269 269 272 273 270 273 273 270 276 287 292 293 297
314 314 314 314 313 310 305 299 291 294 299 294 277 264 269 248 268 274 274 273 277 277 274 272 267 269 268 266 264 263 264 263 265 271 267 263 266 267 265 269 279 281 282